Terminal Aerodrome Forecast
Issued by NWS

Current Version | Previous Version | Text Only | Print | Product List | Glossary On
Versions: 1 2 3 4 5 6 7 8 9 10 11 12 13 14 15
000
FTAK31 PAJN 201730
TAFAJN
TAF
PAJN 201730Z 2018/2118 08009KT P6SM FEW009 BKN025 OVC050
     FM202000 12008KT P6SM SCT035 OVC050
     FM202300 10009KT P6SM -RA SCT035 OVC050
     FM210500 11012KT 5SM -RA BR BKN035 OVC050
     FM210900 11012G22KT 4SM RA BR BKN015 OVC025 WS020/13030KT=

USA.gov is the U.S. government's official web portal to all federal, state and local government web resources and services.